| time (UTC) | temp F | wind direction | speed knots | gust knots | rain 1hr in | rain 24hr in | rain mn in | humidity % | barometer mb |
| 20260906114533 | 64 | 74 | 0.9 | 6.1 | 0.00 | 0.00 | 0.00 | 97 | 1015.9 |
| 20260906113025 | 64 | 76 | 0.9 | 2.6 | 0.00 | 0.00 | 0.00 | 97 | 1015.7 |
| 20260906111524 | 64 | 83 | 0.9 | 3.5 | 0.00 | 0.00 | 0.00 | 97 | 1015.6 |
| 20260906110023 | 63 | 72 | 1.7 | 4.3 | 0.00 | 0.00 | 0.00 | 97 | 1015.4 |
| 20260906104522 | 63 | 77 | 2.6 | 5.2 | 0.00 | 0.00 | 0.00 | 97 | 1015.3 |
| 20260906103020 | 63 | 34 | 1.7 | 5.2 | 0.00 | 0.00 | 0.00 | 96 | 1015.4 |
| 20260906093102 | 64 | 61 | 0.0 | 3.5 | 0.00 | 0.00 | 0.00 | 96 | 1015.0 |
| 20260906091557 | 64 | 65 | 0.0 | 5.2 | 0.00 | 0.00 | 0.00 | 96 | 1014.8 |
| 20260906090109 | 64 | 72 | 0.0 | 3.5 | 0.00 | 0.00 | 0.00 | 96 | 1014.8 |
| 20260906084601 | 64 | 219 | 0.0 | 0.9 | 0.00 | 0.01 | 0.00 | 96 | 1014.9 |
| 20260906083055 | 64 | 285 | 0.0 | 0.0 | 0.00 | 0.01 | 0.00 | 96 | 1014.9 |
| 20260906081601 | 64 | 285 | 0.0 | 0.9 | 0.00 | 0.01 | 0.00 | 96 | 1014.9 |
| 20260906080054 | 64 | 73 | 0.0 | 0.9 | 0.00 | 0.01 | 0.00 | 95 | 1014.9 |
| 20260906074548 | 64 | 72 | 0.0 | 2.6 | 0.00 | 0.01 | 0.00 | 95 | 1014.7 |
| 20260906073056 | 65 | 70 | 0.9 | 4.3 | 0.00 | 0.01 | 0.00 | 95 | 1014.7 |
| 20260906071546 | 65 | 63 | 0.9 | 3.5 | 0.00 | 0.01 | 0.00 | 95 | 1014.7 |
| 20260906070054 | 65 | 57 | 0.0 | 3.5 | 0.00 | 0.01 | 0.00 | 95 | 1014.7 |
| 20260906064544 | 65 | 46 | 0.0 | 1.7 | 0.00 | 0.01 | 0.00 | 94 | 1014.8 |
| 20260906063044 | 65 | 349 | 0.0 | 0.0 | 0.00 | 0.01 | 0.00 | 94 | 1015.0 |
| 20260906061553 | 66 | 12 | 0.0 | 0.0 | 0.00 | 0.01 | 0.00 | 93 | 1015.0 |
| 20260906060038 | 67 | 97 | 0.0 | 1.7 | 0.00 | 0.01 | 0.00 | 93 | 1015.0 |
| 20260906054602 | 67 | 72 | 0.0 | 2.6 | 0.00 | 0.01 | 0.00 | 93 | 1014.9 |
| 20260906053041 | 68 | 84 | 0.0 | 2.6 | 0.00 | 0.01 | 0.00 | 92 | 1014.9 |
| 20260906051534 | 68 | 70 | 0.9 | 5.2 | 0.00 | 0.01 | 0.00 | 92 | 1014.9 |
| 20260906050035 | 68 | 70 | 0.0 | 5.2 | 0.00 | 0.01 | 0.00 | 92 | 1014.6 |
| 20260906044531 | 68 | 92 | 0.0 | 2.6 | 0.00 | 0.01 | 0.01 | 92 | 1014.5 |
| 20260906043040 | 68 | 15 | 0.0 | 5.2 | 0.00 | 0.01 | 0.01 | 92 | 1014.4 |
| 20260906041528 | 68 | 78 | 0.9 | 4.3 | 0.00 | 0.01 | 0.01 | 92 | 1014.2 |
| 20260906040027 | 67 | 56 | 0.0 | 3.5 | 0.00 | 0.01 | 0.01 | 92 | 1014.1 |
| 20260906034528 | 68 | 32 | 0.0 | 3.5 | 0.00 | 0.01 | 0.01 | 92 | 1014.0 |
| 20260906033024 | 68 | 75 | 0.0 | 3.5 | 0.00 | 0.01 | 0.01 | 92 | 1013.6 |
| 20260906031520 | 68 | 63 | 0.0 | 5.2 | 0.00 | 0.01 | 0.01 | 91 | 1013.6 |
| 20260906030018 | 69 | 94 | 0.0 | 6.1 | 0.00 | 0.01 | 0.01 | 90 | 1013.5 |
| 20260906024515 | 69 | 77 | 0.0 | 3.5 | 0.00 | 0.03 | 0.01 | 90 | 1013.5 |
| 20260906023015 | 70 | 71 | 0.0 | 3.5 | 0.00 | 0.03 | 0.01 | 89 | 1013.5 |
| 20260906021527 | 70 | 90 | 0.9 | 6.1 | 0.00 | 0.03 | 0.01 | 89 | 1013.4 |
| 20260906020012 | 70 | 96 | 0.0 | 5.2 | 0.00 | 0.03 | 0.01 | 89 | 1013.3 |
| 20260906014515 | 70 | 79 | 0.9 | 6.1 | 0.00 | 0.03 | 0.01 | 89 | 1013.3 |
| 20260906013011 | 70 | 71 | 0.9 | 5.2 | 0.00 | 0.03 | 0.01 | 89 | 1013.3 |
| 20260906011510 | 70 | 95 | 1.7 | 8.7 | 0.00 | 0.03 | 0.01 | 89 | 1013.3 |
| 20260906010010 | 70 | 80 | 3.5 | 10.4 | 0.00 | 0.03 | 0.01 | 88 | 1013.2 |
| 20260906004506 | 71 | 76 | 3.5 | 8.7 | 0.00 | 0.03 | 0.01 | 88 | 1013.2 |
| 20260906003006 | 71 | 74 | 2.6 | 7.8 | 0.00 | 0.03 | 0.01 | 88 | 1013.1 |
| 20260906001506 | 71 | 58 | 4.3 | 11.3 | 0.00 | 0.03 | 0.01 | 88 | 1013.1 |
| 20260906000004 | 72 | 67 | 5.2 | 14.8 | 0.00 | 0.03 | 0.01 | 86 | 1012.8 |
| 20260905234502 | 73 | 63 | 0.9 | 8.7 | 0.00 | 0.03 | 0.01 | 86 | 1012.9 |
| 20260905233026 | 75 | 87 | 3.5 | 7.8 | 0.00 | 0.03 | 0.01 | 83 | 1012.5 |
| 20260905231601 | 76 | 69 | 0.9 | 6.1 | 0.00 | 0.03 | 0.01 | 82 | 1012.4 |
| 20260905230103 | 76 | 89 | 2.6 | 10.4 | 0.00 | 0.03 | 0.01 | 82 | 1012.4 |
| 20260905224606 | 77 | 82 | 1.7 | 6.1 | 0.00 | 0.03 | 0.01 | 82 | 1012.1 |
| 20260905223058 | 77 | 60 | 3.5 | 9.6 | 0.00 | 0.03 | 0.01 | 82 | 1012.1 |
| 20260905221557 | 79 | 91 | 5.2 | 9.6 | 0.00 | 0.03 | 0.01 | 79 | 1012.0 |
| 20260905214555 | 81 | 79 | 1.7 | 10.4 | 0.00 | 0.03 | 0.01 | 75 | 1011.8 |
| 20260905213054 | 82 | 87 | 0.0 | 2.6 | 0.00 | 0.03 | 0.01 | 76 | 1011.6 |
| 20260905211554 | 80 | 68 | 0.0 | 4.3 | 0.00 | 0.03 | 0.01 | 77 | 1011.6 |
| 20260905210052 | 82 | 46 | 0.0 | 4.3 | 0.00 | 0.03 | 0.01 | 75 | 1011.7 |
| 20260905204551 | 81 | 53 | 0.0 | 2.6 | 0.00 | 0.03 | 0.01 | 75 | 1011.7 |
| 20260905203051 | 82 | 356 | 0.0 | 0.9 | 0.00 | 0.03 | 0.01 | 76 | 1011.7 |
| 20260905201548 | 80 | 77 | 0.0 | 5.2 | 0.00 | 0.03 | 0.01 | 78 | 1011.9 |
| 20260905200053 | 80 | 34 | 1.7 | 4.3 | 0.00 | 0.03 | 0.01 | 78 | 1011.9 |
| 20260905194547 | 80 | 69 | 0.0 | 6.1 | 0.00 | 0.03 | 0.01 | 80 | 1011.8 |
| 20260905193045 | 79 | 70 | 0.0 | 2.6 | 0.00 | 0.03 | 0.01 | 82 | 1012.2 |
| 20260905191544 | 77 | 55 | 0.0 | 3.5 | 0.00 | 0.03 | 0.01 | 84 | 1012.3 |
| 20260905190049 | 77 | 341 | 0.0 | 0.9 | 0.00 | 0.03 | 0.01 | 85 | 1012.4 |
| 20260905184551 | 76 | 317 | 0.0 | 1.7 | 0.00 | 0.03 | 0.01 | 85 | 1012.5 |
| 20260905183042 | 76 | 71 | 0.0 | 6.1 | 0.00 | 0.03 | 0.01 | 86 | 1012.7 |
| 20260905181604 | 75 | 330 | 0.0 | 3.5 | 0.00 | 0.03 | 0.01 | 86 | 1012.6 |
| 20260905180034 | 75 | 6 | 0.0 | 5.2 | 0.00 | 0.03 | 0.01 | 87 | 1012.6 |
| 20260905174533 | 75 | 98 | 0.0 | 3.5 | 0.00 | 0.03 | 0.01 | 87 | 1012.5 |
| 20260905173033 | 75 | 21 | 0.0 | 5.2 | 0.00 | 0.03 | 0.01 | 87 | 1012.5 |
| 20260905171536 | 75 | 68 | 0.0 | 2.6 | 0.00 | 0.03 | 0.01 | 87 | 1012.5 |
| 20260905170025 | 75 | 37 | 0.0 | 3.5 | 0.00 | 0.03 | 0.01 | 87 | 1012.6 |
| 20260905164532 | 75 | 82 | 0.0 | 4.3 | 0.00 | 0.13 | 0.01 | 88 | 1012.7 |
| 20260905163021 | 76 | 324 | 0.0 | 4.3 | 0.00 | 0.13 | 0.01 | 88 | 1012.7 |
| 20260905161520 | 75 | 72 | 0.9 | 6.1 | 0.00 | 0.13 | 0.01 | 87 | 1012.6 |
| 20260905160024 | 76 | 64 | 0.0 | 6.1 | 0.00 | 0.13 | 0.01 | 87 | 1012.6 |
| 20260905154518 | 76 | 325 | 0.0 | 3.5 | 0.00 | 0.13 | 0.01 | 87 | 1012.5 |
| 20260905153014 | 76 | 18 | 0.9 | 5.2 | 0.00 | 0.13 | 0.01 | 88 | 1012.2 |
| 20260905151512 | 75 | 65 | 3.5 | 7.0 | 0.00 | 0.13 | 0.01 | 88 | 1012.0 |
| 20260905150009 | 74 | 68 | 0.9 | 8.7 | 0.00 | 0.13 | 0.01 | 91 | 1012.0 |
| 20260905144508 | 73 | 78 | 1.7 | 7.0 | 0.00 | 0.13 | 0.01 | 94 | 1011.9 |
| 20260905143018 | 72 | 77 | 3.5 | 7.8 | 0.00 | 0.13 | 0.01 | 94 | 1012.0 |
| 20260905141508 | 71 | 70 | 1.7 | 7.0 | 0.00 | 0.13 | 0.01 | 95 | 1011.8 |
| 20260905140007 | 71 | 326 | 1.7 | 5.2 | 0.00 | 0.13 | 0.01 | 96 | 1011.9 |
| 20260905134510 | 71 | 73 | 2.6 | 6.1 | 0.00 | 0.13 | 0.01 | 96 | 1011.7 |
| 20260905133003 | 71 | 17 | 1.7 | 5.2 | 0.00 | 0.13 | 0.01 | 96 | 1011.6 |
| 20260905131503 | 70 | 60 | 3.5 | 7.0 | 0.00 | 0.13 | 0.01 | 96 | 1011.5 |
| 20260905130002 | 70 | 53 | 1.7 | 6.1 | 0.00 | 0.13 | 0.01 | 96 | 1012.0 |
| 20260905124552 | 70 | 80 | 1.7 | 6.1 | 0.00 | 0.13 | 0.01 | 96 | 1011.4 |
| 20260905123049 | 70 | 70 | 1.7 | 7.0 | 0.00 | 0.13 | 0.01 | 96 | 1011.1 |
| 20260905123007 | 70 | 82 | 2.6 | 7.0 | 0.00 | 0.13 | 0.01 | 96 | 1011.1 |
| 20260905121545 | 70 | 58 | 3.5 | 7.8 | 0.00 | 0.13 | 0.01 | 95 | 1010.7 |
| 20260905120043 | 70 | 64 | 2.6 | 6.1 | 0.00 | 0.13 | 0.01 | 95 | 1010.5 |